| time (UTC) | temp F | wind direction | speed MPH | gust MPH | rain 1hr in | rain 24hr in | rain mn in | humidity % | barometer mb |
| 20260509032003 | 52 | 120 | 0.0 | 3.0 | 0.00 | 0.00 | 0.00 | 54 | 1016.3 |
| 20260509031913 | 53 | 120 | 1.0 | 3.0 | 0.00 | 0.00 | 0.00 | 55 | 1017.7 |
| 20260509031506 | 53 | 117 | 0.0 | 4.0 | 0.00 | 0.00 | 0.00 | 54 | 1016.1 |
| 20260509031413 | 54 | 119 | 1.0 | 4.0 | 0.00 | 0.00 | 0.00 | 54 | 1017.6 |
| 20260509031003 | 54 | 120 | 1.0 | 4.0 | 0.00 | 0.00 | 0.00 | 53 | 1016.1 |
| 20260509030911 | 54 | 117 | 1.0 | 4.0 | 0.00 | 0.00 | 0.00 | 53 | 1017.5 |
| 20260509030503 | 54 | 113 | 0.0 | 3.0 | 0.00 | 0.00 | 0.00 | 51 | 1016.0 |
| 20260509030411 | 55 | 108 | 1.0 | 3.0 | 0.00 | 0.00 | 0.00 | 52 | 1017.5 |
| 20260509030008 | 55 | 112 | 0.0 | 3.0 | 0.00 | 0.00 | 0.00 | 51 | 1016.0 |
| 20260509025912 | 55 | 112 | 1.0 | 3.0 | 0.00 | 0.00 | 0.00 | 51 | 1017.5 |
| 20260509025504 | 55 | 113 | 1.0 | 3.0 | 0.00 | 0.00 | 0.00 | 49 | 1015.9 |
| 20260509025411 | 55 | 84 | 0.0 | 2.0 | 0.00 | 0.00 | 0.00 | 49 | 1017.4 |
| 20260509025006 | 55 | 257 | 0.0 | 1.0 | 0.00 | 0.00 | 0.00 | 47 | 1015.8 |
| 20260509024911 | 56 | 256 | 0.0 | 1.0 | 0.00 | 0.00 | 0.00 | 47 | 1017.3 |
| 20260509024509 | 55 | 256 | 0.0 | 2.0 | 0.00 | 0.00 | 0.00 | 46 | 1015.8 |
| 20260509024410 | 56 | 256 | 1.0 | 3.0 | 0.00 | 0.00 | 0.00 | 47 | 1017.2 |
| 20260509024010 | 56 | 257 | 0.0 | 4.0 | 0.00 | 0.00 | 0.00 | 45 | 1015.7 |
| 20260509023910 | 56 | 257 | 2.0 | 6.0 | 0.00 | 0.00 | 0.00 | 45 | 1017.1 |
| 20260509023511 | 56 | 257 | 2.0 | 6.0 | 0.00 | 0.00 | 0.00 | 44 | 1015.6 |
| 20260509023409 | 56 | 257 | 1.0 | 6.0 | 0.00 | 0.00 | 0.00 | 44 | 1017.1 |
| 20260509023013 | 56 | 254 | 2.0 | 6.0 | 0.00 | 0.00 | 0.00 | 42 | 1015.7 |
| 20260509022907 | 57 | 296 | 2.0 | 4.0 | 0.00 | 0.00 | 0.00 | 42 | 1017.1 |
| 20260509022504 | 56 | 275 | 0.0 | 6.0 | 0.00 | 0.00 | 0.00 | 40 | 1015.5 |
| 20260509022407 | 57 | 275 | 2.0 | 6.0 | 0.00 | 0.00 | 0.00 | 39 | 1016.9 |
| 20260509022007 | 57 | 317 | 2.0 | 6.0 | 0.00 | 0.00 | 0.00 | 35 | 1015.4 |
| 20260509021906 | 57 | 293 | 2.0 | 6.0 | 0.00 | 0.00 | 0.00 | 35 | 1016.9 |
| 20260509021506 | 57 | 313 | 2.0 | 4.0 | 0.00 | 0.00 | 0.00 | 33 | 1015.5 |
| 20260509021407 | 58 | 255 | 1.0 | 4.0 | 0.00 | 0.00 | 0.00 | 33 | 1016.8 |
| 20260509021007 | 58 | 244 | 0.0 | 5.0 | 0.00 | 0.00 | 0.00 | 32 | 1015.4 |
| 20260509020903 | 58 | 244 | 2.0 | 5.0 | 0.00 | 0.00 | 0.00 | 32 | 1016.8 |
| 20260509020507 | 58 | 284 | 1.0 | 5.0 | 0.00 | 0.00 | 0.00 | 31 | 1015.4 |
| 20260509020403 | 59 | 287 | 2.0 | 5.0 | 0.00 | 0.00 | 0.00 | 31 | 1016.7 |
| 20260509020130 | 59 | 241 | 1.0 | 4.0 | 0.00 | 0.00 | 0.00 | 31 | 1016.6 |
| 20260509020006 | 59 | 269 | 1.0 | 4.0 | 0.00 | 0.00 | 0.00 | 30 | 1015.3 |
| 20260509015621 | 60 | 251 | 1.0 | 3.0 | 0.00 | 0.00 | 0.00 | 30 | 1016.6 |
| 20260509015504 | 59 | 247 | 0.0 | 3.0 | 0.00 | 0.00 | 0.00 | 29 | 1015.2 |
| 20260509015004 | 59 | 251 | 0.0 | 5.0 | 0.00 | 0.00 | 0.00 | 29 | 1015.0 |
| 20260509014903 | 60 | 251 | 2.0 | 5.0 | 0.00 | 0.00 | 0.00 | 29 | 1016.6 |
| 20260509014512 | 59 | 248 | 1.0 | 5.0 | 0.00 | 0.00 | 0.00 | 28 | 1015.2 |
| 20260509014403 | 60 | 248 | 2.0 | 5.0 | 0.00 | 0.00 | 0.00 | 29 | 1016.6 |
| 20260509014006 | 59 | 236 | 2.0 | 5.0 | 0.00 | 0.00 | 0.00 | 28 | 1015.2 |
| 20260509013503 | 60 | 241 | 1.0 | 5.0 | 0.00 | 0.00 | 0.00 | 28 | 1015.2 |
| 20260509013403 | 60 | 234 | 3.0 | 5.0 | 0.00 | 0.00 | 0.00 | 29 | 1016.7 |
| 20260509013033 | 60 | 279 | 2.0 | 5.0 | 0.00 | 0.00 | 0.00 | 28 | 1015.2 |
| 20260509012904 | 60 | 282 | 3.0 | 5.0 | 0.00 | 0.00 | 0.00 | 29 | 1016.6 |
| 20260509012509 | 60 | 283 | 2.0 | 5.0 | 0.00 | 0.00 | 0.00 | 29 | 1015.2 |
| 20260509012400 | 60 | 277 | 2.0 | 5.0 | 0.00 | 0.00 | 0.00 | 29 | 1016.6 |
| 20260509012004 | 60 | 238 | 1.0 | 5.0 | 0.00 | 0.00 | 0.00 | 30 | 1015.2 |
| 20260509011859 | 61 | 241 | 2.0 | 5.0 | 0.00 | 0.00 | 0.00 | 29 | 1016.7 |
| 20260509011512 | 60 | 270 | 0.0 | 5.0 | 0.00 | 0.00 | 0.00 | 31 | 1015.2 |
| 20260509011359 | 60 | 270 | 1.0 | 5.0 | 0.00 | 0.00 | 0.00 | 31 | 1016.7 |
| 20260509011006 | 60 | 294 | 2.0 | 5.0 | 0.00 | 0.00 | 0.00 | 31 | 1015.2 |
| 20260509010859 | 60 | 283 | 1.0 | 4.0 | 0.00 | 0.00 | 0.00 | 31 | 1016.6 |
| 20260509010510 | 60 | 246 | 0.0 | 7.0 | 0.00 | 0.00 | 0.00 | 34 | 1015.0 |
| 20260509010359 | 60 | 247 | 2.0 | 7.0 | 0.00 | 0.00 | 0.00 | 31 | 1016.7 |
| 20260509010008 | 60 | 247 | 2.0 | 8.0 | 0.00 | 0.00 | 0.00 | 30 | 1015.2 |
| 20260509005859 | 60 | 288 | 3.0 | 8.0 | 0.00 | 0.00 | 0.00 | 30 | 1016.7 |
| 20260509005506 | 60 | 310 | 3.0 | 8.0 | 0.00 | 0.00 | 0.00 | 30 | 1015.1 |
| 20260509005400 | 60 | 327 | 2.0 | 8.0 | 0.00 | 0.00 | 0.00 | 30 | 1016.7 |
| 20260509005004 | 60 | 235 | 1.0 | 7.0 | 0.00 | 0.00 | 0.00 | 30 | 1015.1 |
| 20260509004859 | 60 | 219 | 3.0 | 7.0 | 0.00 | 0.00 | 0.00 | 32 | 1016.7 |
| 20260509004508 | 60 | 193 | 2.0 | 7.0 | 0.00 | 0.00 | 0.00 | 31 | 1015.2 |
| 20260509004359 | 60 | 222 | 3.0 | 7.0 | 0.00 | 0.00 | 0.00 | 31 | 1016.8 |
| 20260509004004 | 60 | 237 | 3.0 | 7.0 | 0.00 | 0.00 | 0.00 | 32 | 1015.2 |
| 20260509003857 | 60 | 286 | 2.0 | 6.0 | 0.00 | 0.00 | 0.00 | 34 | 1016.8 |
| 20260509003508 | 59 | 296 | 1.0 | 8.0 | 0.00 | 0.00 | 0.00 | 35 | 1015.2 |
| 20260509003358 | 60 | 301 | 3.0 | 8.0 | 0.00 | 0.00 | 0.00 | 34 | 1016.9 |
| 20260509003017 | 59 | 335 | 3.0 | 8.0 | 0.00 | 0.00 | 0.00 | 34 | 1015.3 |
| 20260509002857 | 60 | 319 | 3.0 | 8.0 | 0.00 | 0.00 | 0.00 | 35 | 1016.9 |
| 20260509002503 | 59 | 240 | 3.0 | 9.0 | 0.00 | 0.00 | 0.00 | 36 | 1015.4 |
| 20260509002357 | 60 | 240 | 3.0 | 9.0 | 0.00 | 0.00 | 0.00 | 38 | 1016.9 |
| 20260509002007 | 60 | 232 | 2.0 | 9.0 | 0.00 | 0.00 | 0.00 | 38 | 1015.2 |
| 20260509001856 | 60 | 249 | 4.0 | 9.0 | 0.00 | 0.00 | 0.00 | 38 | 1016.9 |
| 20260509001518 | 60 | 240 | 3.0 | 9.0 | 0.00 | 0.00 | 0.00 | 38 | 1015.3 |
| 20260509001355 | 60 | 276 | 4.0 | 9.0 | 0.00 | 0.00 | 0.00 | 39 | 1016.9 |
| 20260509001007 | 60 | 236 | 4.0 | 9.0 | 0.00 | 0.00 | 0.00 | 36 | 1015.3 |
| 20260509000855 | 60 | 311 | 3.0 | 9.0 | 0.00 | 0.00 | 0.00 | 36 | 1016.9 |
| 20260509000504 | 60 | 255 | 2.0 | 8.0 | 0.00 | 0.00 | 0.00 | 35 | 1015.3 |
| 20260509000355 | 60 | 290 | 3.0 | 8.0 | 0.00 | 0.00 | 0.00 | 35 | 1016.8 |
| 20260509000018 | 60 | 231 | 2.0 | 7.0 | 0.00 | 0.00 | 0.00 | 35 | 1015.3 |
| 20260508235855 | 60 | 284 | 3.0 | 7.0 | 0.00 | 0.00 | 0.00 | 36 | 1016.9 |
| 20260508235508 | 59 | 261 | 2.0 | 7.0 | 0.00 | 0.00 | 0.00 | 35 | 1015.3 |
| 20260508235354 | 60 | 298 | 2.0 | 7.0 | 0.00 | 0.00 | 0.00 | 36 | 1016.8 |
| 20260508235006 | 59 | 314 | 3.0 | 10.0 | 0.00 | 0.00 | 0.00 | 34 | 1015.3 |
| 20260508234516 | 60 | 283 | 2.0 | 12.0 | 0.00 | 0.00 | 0.00 | 36 | 1015.3 |
| 20260508234353 | 60 | 281 | 3.0 | 12.0 | 0.00 | 0.00 | 0.00 | 36 | 1016.8 |
| 20260508234008 | 60 | 286 | 3.0 | 12.0 | 0.00 | 0.00 | 0.00 | 36 | 1015.2 |
| 20260508233852 | 60 | 335 | 3.0 | 12.0 | 0.00 | 0.00 | 0.00 | 39 | 1016.9 |
| 20260508233504 | 59 | 286 | 2.0 | 8.0 | 0.00 | 0.00 | 0.00 | 38 | 1015.3 |
| 20260508233353 | 60 | 238 | 3.0 | 8.0 | 0.00 | 0.00 | 0.00 | 40 | 1016.8 |
| 20260508233013 | 59 | 163 | 4.0 | 8.0 | 0.00 | 0.00 | 0.00 | 40 | 1015.3 |
| 20260508232851 | 60 | 240 | 2.0 | 8.0 | 0.00 | 0.00 | 0.00 | 41 | 1016.9 |
| 20260508232504 | 59 | 275 | 2.0 | 5.0 | 0.00 | 0.00 | 0.00 | 41 | 1015.3 |
| 20260508232350 | 59 | 298 | 1.0 | 5.0 | 0.00 | 0.00 | 0.00 | 42 | 1016.8 |
| 20260508232007 | 58 | 311 | 1.0 | 7.0 | 0.00 | 0.00 | 0.00 | 41 | 1015.3 |
| 20260508231844 | 59 | 297 | 3.0 | 7.0 | 0.00 | 0.00 | 0.00 | 43 | 1016.9 |
| 20260508231510 | 58 | 247 | 1.0 | 9.0 | 0.00 | 0.00 | 0.00 | 41 | 1015.3 |
| 20260508231338 | 59 | 247 | 4.0 | 9.0 | 0.00 | 0.00 | 0.00 | 41 | 1016.9 |
| 20260508231057 | 59 | 278 | 3.0 | 8.0 | 0.00 | 0.00 | 0.00 | 41 | 1017.1 |
| 20260508231004 | 58 | 281 | 4.0 | 9.0 | 0.00 | 0.00 | 0.00 | 41 | 1015.3 |
| 20260508230507 | 58 | 297 | 3.0 | 8.0 | 0.00 | 0.00 | 0.00 | 42 | 1015.3 |
| 20260508230326 | 58 | 263 | 2.0 | 8.0 | 0.00 | 0.00 | 0.00 | 46 | 1016.9 |
| 20260508230045 | 58 | 159 | 1.0 | 8.0 | 0.00 | 0.00 | 0.00 | 44 | 1015.3 |
| 20260508225820 | 58 | 190 | 3.0 | 8.0 | 0.00 | 0.00 | 0.00 | 44 | 1016.9 |
| 20260508225504 | 58 | 323 | 2.0 | 6.0 | 0.00 | 0.00 | 0.00 | 42 | 1015.3 |
| 20260508225315 | 58 | 289 | 3.0 | 6.0 | 0.00 | 0.00 | 0.00 | 43 | 1016.9 |
| 20260508225009 | 58 | 240 | 2.0 | 6.0 | 0.00 | 0.00 | 0.00 | 44 | 1015.5 |
| 20260508224809 | 59 | 259 | 2.0 | 6.0 | 0.00 | 0.00 | 0.00 | 44 | 1016.9 |
| 20260508224551 | 59 | 313 | 2.0 | 6.0 | 0.00 | 0.00 | 0.00 | 42 | 1015.3 |
| 20260508224302 | 59 | 281 | 2.0 | 6.0 | 0.00 | 0.00 | 0.00 | 43 | 1016.8 |
| 20260508224008 | 59 | 252 | 0.0 | 6.0 | 0.00 | 0.00 | 0.00 | 42 | 1015.3 |
| 20260508223756 | 59 | 314 | 2.0 | 6.0 | 0.00 | 0.00 | 0.00 | 42 | 1016.9 |
| 20260508223511 | 59 | 242 | 2.0 | 6.0 | 0.00 | 0.00 | 0.00 | 44 | 1015.4 |
| 20260508223250 | 60 | 250 | 1.0 | 6.0 | 0.00 | 0.00 | 0.00 | 44 | 1016.8 |
| 20260508223030 | 59 | 76 | 1.0 | 6.0 | 0.00 | 0.00 | 0.00 | 44 | 1015.4 |
| 20260508222744 | 60 | 173 | 2.0 | 6.0 | 0.00 | 0.00 | 0.00 | 45 | 1016.8 |
| 20260508222508 | 59 | 111 | 1.0 | 6.0 | 0.00 | 0.00 | 0.00 | 45 | 1015.4 |
| 20260508222238 | 59 | 232 | 2.0 | 6.0 | 0.00 | 0.00 | 0.00 | 44 | 1016.8 |
| 20260508222010 | 59 | 108 | 3.0 | 6.0 | 0.00 | 0.00 | 0.00 | 45 | 1015.3 |
| 20260508221732 | 59 | 236 | 2.0 | 6.0 | 0.00 | 0.00 | 0.00 | 45 | 1016.8 |
| 20260508221513 | 59 | 95 | 2.0 | 6.0 | 0.00 | 0.00 | 0.00 | 46 | 1015.3 |
| 20260508221226 | 59 | 188 | 2.0 | 8.0 | 0.00 | 0.00 | 0.00 | 46 | 1016.8 |
| 20260508221004 | 59 | 223 | 1.0 | 5.0 | 0.00 | 0.00 | 0.00 | 45 | 1015.3 |
| 20260508220720 | 59 | 212 | 2.0 | 8.0 | 0.00 | 0.00 | 0.00 | 46 | 1016.8 |
| 20260508220504 | 59 | 234 | 2.0 | 8.0 | 0.00 | 0.00 | 0.00 | 45 | 1015.3 |
| 20260508220214 | 59 | 275 | 2.0 | 8.0 | 0.00 | 0.00 | 0.00 | 46 | 1016.7 |
| 20260508220016 | 59 | 180 | 2.0 | 10.0 | 0.00 | 0.00 | 0.00 | 45 | 1015.4 |
| 20260508215708 | 60 | 237 | 3.0 | 10.0 | 0.00 | 0.00 | 0.00 | 44 | 1016.7 |
| 20260508215505 | 59 | 133 | 3.0 | 10.0 | 0.00 | 0.00 | 0.00 | 45 | 1015.3 |
| 20260508215202 | 60 | 161 | 3.0 | 10.0 | 0.00 | 0.00 | 0.00 | 44 | 1016.6 |
| 20260508215007 | 60 | 227 | 1.0 | 8.0 | 0.00 | 0.00 | 0.00 | 44 | 1015.2 |
| 20260508214917 | 60 | 119 | 3.0 | 8.0 | 0.00 | 0.00 | 0.00 | 45 | 1016.8 |
| 20260508214516 | 59 | 115 | 2.0 | 8.0 | 0.00 | 0.00 | 0.00 | 44 | 1015.2 |
| 20260508214150 | 60 | 178 | 3.0 | 8.0 | 0.00 | 0.00 | 0.00 | 43 | 1016.7 |
| 20260508214007 | 59 | 120 | 3.0 | 12.0 | 0.00 | 0.00 | 0.00 | 44 | 1015.2 |
| 20260508213644 | 60 | 118 | 2.0 | 12.0 | 0.00 | 0.00 | 0.00 | 44 | 1016.7 |
| 20260508213510 | 59 | 284 | 1.0 | 12.0 | 0.00 | 0.00 | 0.00 | 44 | 1015.2 |
| 20260508213138 | 59 | 122 | 2.0 | 12.0 | 0.00 | 0.00 | 0.00 | 44 | 1016.6 |
| 20260508213003 | 59 | 241 | 1.0 | 7.0 | 0.00 | 0.00 | 0.00 | 43 | 1015.2 |
| 20260508212633 | 59 | 275 | 2.0 | 7.0 | 0.00 | 0.00 | 0.00 | 42 | 1016.7 |
| 20260508212502 | 59 | 237 | 2.0 | 7.0 | 0.00 | 0.00 | 0.00 | 41 | 1015.2 |
| 20260508212126 | 60 | 238 | 3.0 | 10.0 | 0.00 | 0.00 | 0.00 | 40 | 1016.6 |
| 20260508212004 | 60 | 218 | 3.0 | 10.0 | 0.00 | 0.00 | 0.00 | 39 | 1015.2 |
| 20260508211620 | 61 | 229 | 3.0 | 10.0 | 0.00 | 0.00 | 0.00 | 40 | 1016.5 |
| 20260508211509 | 60 | 195 | 4.0 | 10.0 | 0.00 | 0.00 | 0.00 | 42 | 1015.1 |
| 20260508211114 | 61 | 104 | 2.0 | 7.0 | 0.00 | 0.00 | 0.00 | 41 | 1016.5 |
| 20260508211001 | 60 | 170 | 1.0 | 7.0 | 0.00 | 0.00 | 0.00 | 39 | 1015.1 |
| 20260508210608 | 61 | 103 | 2.0 | 7.0 | 0.00 | 0.00 | 0.00 | 42 | 1016.4 |
| 20260508210504 | 60 | 211 | 1.0 | 5.0 | 0.00 | 0.00 | 0.00 | 40 | 1015.0 |
| 20260508210004 | 60 | 125 | 1.0 | 5.0 | 0.00 | 0.00 | 0.00 | 40 | 1014.9 |
| 20260508205556 | 60 | 167 | 1.0 | 5.0 | 0.00 | 0.00 | 0.00 | 40 | 1016.3 |
| 20260508205501 | 60 | 259 | 1.0 | 5.0 | 0.00 | 0.00 | 0.00 | 40 | 1014.9 |
| 20260508205050 | 61 | 241 | 2.0 | 6.0 | 0.00 | 0.00 | 0.00 | 39 | 1016.3 |
| 20260508205002 | 61 | 17 | 2.0 | 9.0 | 0.00 | 0.00 | 0.00 | 39 | 1014.9 |
| 20260508204543 | 62 | 138 | 3.0 | 10.0 | 0.00 | 0.00 | 0.00 | 40 | 1016.5 |
| 20260508204510 | 61 | 198 | 0.0 | 10.0 | 0.00 | 0.00 | 0.00 | 40 | 1015.0 |
| 20260508204306 | 61 | 143 | 4.0 | 10.0 | 0.00 | 0.00 | 0.00 | 43 | 1016.4 |
| 20260508204002 | 61 | 123 | 5.0 | 10.0 | 0.00 | 0.00 | 0.00 | 43 | 1015.0 |
| 20260508203533 | 61 | 317 | 4.0 | 11.0 | 0.00 | 0.00 | 0.00 | 46 | 1016.5 |
| 20260508203502 | 60 | 240 | 2.0 | 11.0 | 0.00 | 0.00 | 0.00 | 45 | 1015.0 |
| 20260508203027 | 60 | 104 | 6.0 | 12.0 | 0.00 | 0.00 | 0.00 | 46 | 1016.5 |
| 20260508203004 | 60 | 122 | 2.0 | 14.0 | 0.00 | 0.00 | 0.00 | 46 | 1015.0 |
| 20260508202520 | 60 | 114 | 6.0 | 14.0 | 0.00 | 0.00 | 0.00 | 46 | 1016.5 |
| 20260508202504 | 59 | 92 | 5.0 | 14.0 | 0.00 | 0.00 | 0.00 | 46 | 1015.0 |
| 20260508202014 | 59 | 72 | 4.0 | 11.0 | 0.00 | 0.00 | 0.00 | 46 | 1016.6 |
| 20260508202004 | 59 | 86 | 4.0 | 11.0 | 0.00 | 0.00 | 0.00 | 46 | 1015.0 |
| 20260508201508 | 58 | 113 | 4.0 | 12.0 | 0.00 | 0.00 | 0.00 | 47 | 1016.5 |
| 20260508201503 | 58 | 123 | 2.0 | 12.0 | 0.00 | 0.00 | 0.00 | 47 | 1015.2 |
| 20260508201004 | 58 | 242 | 1.0 | 12.0 | 0.00 | 0.00 | 0.00 | 45 | 1015.2 |
| 20260508200504 | 57 | 96 | 3.0 | 8.0 | 0.00 | 0.00 | 0.00 | 48 | 1015.2 |
| 20260508200456 | 58 | 98 | 2.0 | 8.0 | 0.00 | 0.00 | 0.00 | 48 | 1016.7 |
| 20260508200213 | 58 | 225 | 2.0 | 8.0 | 0.00 | 0.00 | 0.00 | 46 | 1016.8 |
| 20260508200015 | 58 | 227 | 1.0 | 8.0 | 0.00 | 0.00 | 0.00 | 45 | 1015.4 |
| 20260508195502 | 58 | 93 | 1.0 | 10.0 | 0.00 | 0.00 | 0.00 | 46 | 1015.4 |
| 20260508195443 | 58 | 250 | 4.0 | 10.0 | 0.00 | 0.00 | 0.00 | 46 | 1016.8 |
| 20260508195002 | 58 | 109 | 6.0 | 10.0 | 0.00 | 0.00 | 0.00 | 47 | 1015.3 |
| 20260508194938 | 59 | 115 | 5.0 | 10.0 | 0.00 | 0.00 | 0.00 | 48 | 1016.7 |
| 20260508194658 | 59 | 113 | 4.0 | 9.0 | 0.00 | 0.00 | 0.00 | 46 | 1016.7 |
| 20260508194502 | 59 | 98 | 5.0 | 9.0 | 0.00 | 0.00 | 0.00 | 45 | 1015.2 |
| 20260508194147 | 59 | 111 | 3.0 | 8.0 | 0.00 | 0.00 | 0.00 | 47 | 1016.8 |
| 20260508194002 | 59 | 109 | 4.0 | 8.0 | 0.00 | 0.00 | 0.00 | 46 | 1015.3 |
| 20260508193503 | 59 | 105 | 2.0 | 8.0 | 0.00 | 0.00 | 0.00 | 45 | 1015.3 |
| 20260508193420 | 59 | 111 | 2.0 | 8.0 | 0.00 | 0.00 | 0.00 | 46 | 1016.7 |
| 20260508193003 | 59 | 110 | 2.0 | 8.0 | 0.00 | 0.00 | 0.00 | 46 | 1015.2 |
| 20260508192915 | 60 | 103 | 3.0 | 8.0 | 0.00 | 0.00 | 0.00 | 46 | 1016.6 |
| 20260508192503 | 59 | 111 | 1.0 | 12.0 | 0.00 | 0.00 | 0.00 | 46 | 1015.1 |
| 20260508192414 | 60 | 111 | 5.0 | 12.0 | 0.00 | 0.00 | 0.00 | 47 | 1016.5 |
| 20260508192003 | 59 | 139 | 6.0 | 12.0 | 0.00 | 0.00 | 0.00 | 46 | 1015.1 |
| 20260508191914 | 60 | 115 | 5.0 | 12.0 | 0.00 | 0.00 | 0.00 | 49 | 1016.5 |
| 20260508191507 | 60 | 112 | 4.0 | 13.0 | 0.00 | 0.00 | 0.00 | 47 | 1014.9 |
| 20260508191414 | 60 | 108 | 4.0 | 13.0 | 0.00 | 0.00 | 0.00 | 48 | 1016.5 |
| 20260508191004 | 60 | 137 | 2.0 | 13.0 | 0.00 | 0.00 | 0.00 | 46 | 1014.9 |
| 20260508190914 | 60 | 198 | 5.0 | 13.0 | 0.00 | 0.00 | 0.00 | 49 | 1016.4 |
| 20260508190502 | 60 | 109 | 7.0 | 13.0 | 0.00 | 0.00 | 0.00 | 49 | 1015.0 |
| 20260508190414 | 60 | 80 | 3.0 | 12.0 | 0.00 | 0.00 | 0.00 | 50 | 1016.4 |
| 20260508190004 | 59 | 98 | 3.0 | 12.0 | 0.00 | 0.00 | 0.00 | 48 | 1015.0 |
| 20260508185913 | 60 | 110 | 4.0 | 12.0 | 0.00 | 0.00 | 0.00 | 47 | 1016.6 |
| 20260508185506 | 59 | 193 | 1.0 | 11.0 | 0.00 | 0.00 | 0.00 | 47 | 1015.1 |
| 20260508185412 | 59 | 127 | 5.0 | 11.0 | 0.00 | 0.00 | 0.00 | 48 | 1016.5 |
| 20260508185003 | 58 | 127 | 6.0 | 11.0 | 0.00 | 0.00 | 0.00 | 49 | 1015.0 |
| 20260508184910 | 59 | 108 | 4.0 | 11.0 | 0.00 | 0.00 | 0.00 | 49 | 1016.5 |
| 20260508184504 | 58 | 86 | 4.0 | 10.0 | 0.00 | 0.00 | 0.00 | 50 | 1015.0 |
| 20260508184410 | 58 | 111 | 2.0 | 10.0 | 0.00 | 0.00 | 0.00 | 51 | 1016.6 |
| 20260508184004 | 58 | 339 | 1.0 | 7.0 | 0.00 | 0.00 | 0.00 | 51 | 1015.1 |
| 20260508183910 | 58 | 63 | 2.0 | 7.0 | 0.00 | 0.00 | 0.00 | 51 | 1016.5 |
| 20260508183503 | 58 | 128 | 1.0 | 7.0 | 0.00 | 0.00 | 0.00 | 50 | 1015.1 |
| 20260508183410 | 58 | 124 | 2.0 | 7.0 | 0.00 | 0.00 | 0.00 | 52 | 1016.6 |
| 20260508183129 | 58 | 242 | 2.0 | 7.0 | 0.00 | 0.00 | 0.00 | 50 | 1016.5 |
| 20260508183002 | 58 | 140 | 1.0 | 7.0 | 0.00 | 0.00 | 0.00 | 49 | 1015.0 |
| 20260508182631 | 58 | 82 | 2.0 | 7.0 | 0.00 | 0.00 | 0.00 | 49 | 1016.5 |
| 20260508182502 | 58 | 247 | 1.0 | 7.0 | 0.00 | 0.00 | 0.00 | 49 | 1015.0 |
| 20260508182129 | 58 | 157 | 3.0 | 7.0 | 0.00 | 0.00 | 0.00 | 47 | 1016.5 |
| 20260508182002 | 58 | 188 | 1.0 | 7.0 | 0.00 | 0.00 | 0.00 | 48 | 1015.1 |
| 20260508181507 | 58 | 184 | 2.0 | 7.0 | 0.00 | 0.00 | 0.00 | 47 | 1015.0 |
| 20260508181409 | 59 | 116 | 3.0 | 7.0 | 0.00 | 0.00 | 0.00 | 46 | 1016.5 |
| 20260508181002 | 59 | 122 | 2.0 | 7.0 | 0.00 | 0.00 | 0.00 | 46 | 1015.0 |
| 20260508180910 | 59 | 111 | 2.0 | 7.0 | 0.00 | 0.00 | 0.00 | 44 | 1016.5 |
| 20260508180503 | 59 | 248 | 2.0 | 8.0 | 0.00 | 0.00 | 0.00 | 45 | 1015.0 |
| 20260508180409 | 60 | 80 | 2.0 | 8.0 | 0.00 | 0.00 | 0.00 | 46 | 1016.4 |
| 20260508180008 | 59 | 281 | 1.0 | 8.0 | 0.00 | 0.00 | 0.00 | 45 | 1014.9 |
| 20260508175904 | 60 | 241 | 2.0 | 8.0 | 0.00 | 0.00 | 0.00 | 47 | 1016.5 |
| 20260508175503 | 60 | 101 | 2.0 | 7.0 | 0.00 | 0.00 | 0.00 | 45 | 1015.0 |
| 20260508175358 | 60 | 234 | 2.0 | 7.0 | 0.00 | 0.00 | 0.00 | 45 | 1016.4 |
| 20260508175004 | 60 | 200 | 1.0 | 9.0 | 0.00 | 0.00 | 0.00 | 45 | 1014.9 |
| 20260508174852 | 60 | 189 | 2.0 | 9.0 | 0.00 | 0.00 | 0.00 | 47 | 1016.3 |
| 20260508174507 | 60 | 76 | 2.0 | 9.0 | 0.00 | 0.00 | 0.00 | 46 | 1014.9 |
| 20260508174346 | 60 | 97 | 1.0 | 8.0 | 0.00 | 0.00 | 0.00 | 45 | 1016.4 |
| 20260508174006 | 59 | 111 | 0.0 | 8.0 | 0.00 | 0.00 | 0.00 | 46 | 1014.9 |
| 20260508173840 | 60 | 111 | 1.0 | 8.0 | 0.00 | 0.00 | 0.00 | 48 | 1016.4 |
| 20260508173502 | 59 | 225 | 2.0 | 8.0 | 0.00 | 0.00 | 0.00 | 44 | 1014.7 |
| 20260508173338 | 60 | 213 | 2.0 | 8.0 | 0.00 | 0.00 | 0.00 | 45 | 1016.1 |
| 20260508173102 | 59 | 84 | 2.0 | 8.0 | 0.00 | 0.00 | 0.00 | 45 | 1016.1 |
| 20260508173008 | 59 | 317 | 1.0 | 8.0 | 0.00 | 0.00 | 0.00 | 43 | 1014.7 |
| 20260508172557 | 59 | 146 | 2.0 | 8.0 | 0.00 | 0.00 | 0.00 | 46 | 1016.1 |
| 20260508172505 | 59 | 201 | 2.0 | 8.0 | 0.00 | 0.00 | 0.00 | 45 | 1014.7 |
| 20260508172009 | 58 | 104 | 1.0 | 8.0 | 0.00 | 0.00 | 0.00 | 49 | 1014.7 |
| 20260508171838 | 59 | 105 | 3.0 | 8.0 | 0.00 | 0.00 | 0.00 | 49 | 1016.1 |
| 20260508171507 | 58 | 82 | 3.0 | 8.0 | 0.00 | 0.00 | 0.00 | 49 | 1014.7 |
| 20260508171337 | 58 | 210 | 3.0 | 8.0 | 0.00 | 0.00 | 0.00 | 47 | 1016.1 |
| 20260508171003 | 58 | 103 | 3.0 | 11.0 | 0.00 | 0.00 | 0.00 | 47 | 1014.8 |
| 20260508170838 | 58 | 111 | 3.0 | 11.0 | 0.00 | 0.00 | 0.00 | 48 | 1016.1 |
| 20260508170604 | 58 | 80 | 3.0 | 12.0 | 0.00 | 0.00 | 0.00 | 52 | 1016.1 |
| 20260508170502 | 58 | 123 | 4.0 | 11.0 | 0.00 | 0.00 | 0.00 | 49 | 1014.8 |
| 20260508170005 | 58 | 103 | 2.0 | 12.0 | 0.00 | 0.00 | 0.00 | 49 | 1014.7 |
| 20260508165838 | 58 | 198 | 5.0 | 12.0 | 0.00 | 0.00 | 0.00 | 50 | 1016.1 |
| 20260508165503 | 57 | 142 | 5.0 | 15.0 | 0.00 | 0.00 | 0.00 | 51 | 1014.7 |
| 20260508165338 | 58 | 122 | 6.0 | 15.0 | 0.00 | 0.00 | 0.00 | 50 | 1016.0 |
| 20260508165105 | 58 | 107 | 4.0 | 15.0 | 0.00 | 0.00 | 0.00 | 51 | 1016.3 |
| 20260508165004 | 57 | 120 | 7.0 | 15.0 | 0.00 | 0.00 | 0.00 | 51 | 1014.7 |
| 20260508164508 | 57 | 113 | 2.0 | 10.0 | 0.00 | 0.00 | 0.00 | 49 | 1014.7 |
| 20260508164335 | 58 | 101 | 3.0 | 10.0 | 0.00 | 0.00 | 0.00 | 50 | 1016.3 |
| 20260508164003 | 57 | 139 | 2.0 | 9.0 | 0.00 | 0.00 | 0.00 | 50 | 1014.7 |
| 20260508163834 | 58 | 93 | 3.0 | 9.0 | 0.00 | 0.00 | 0.00 | 50 | 1016.3 |
| 20260508163503 | 57 | 104 | 3.0 | 13.0 | 0.00 | 0.00 | 0.00 | 51 | 1014.8 |
| 20260508163334 | 57 | 102 | 3.0 | 13.0 | 0.00 | 0.00 | 0.00 | 52 | 1016.3 |
| 20260508163011 | 57 | 105 | 2.0 | 13.0 | 0.00 | 0.00 | 0.00 | 50 | 1014.9 |
| 20260508162834 | 57 | 98 | 3.0 | 13.0 | 0.00 | 0.00 | 0.00 | 51 | 1016.3 |
| 20260508162557 | 57 | 238 | 2.0 | 8.0 | 0.00 | 0.00 | 0.00 | 49 | 1016.3 |
| 20260508162504 | 57 | 100 | 3.0 | 8.0 | 0.00 | 0.00 | 0.00 | 52 | 1014.8 |
| 20260508162004 | 56 | 30 | 2.0 | 10.0 | 0.00 | 0.00 | 0.00 | 49 | 1014.8 |
| 20260508161833 | 57 | 93 | 4.0 | 10.0 | 0.00 | 0.00 | 0.00 | 50 | 1016.1 |
| 20260508161558 | 57 | 104 | 5.0 | 11.0 | 0.00 | 0.00 | 0.00 | 50 | 1016.1 |
| 20260508161518 | 56 | 219 | 4.0 | 10.0 | 0.00 | 0.00 | 0.00 | 49 | 1014.6 |
| 20260508161006 | 56 | 105 | 3.0 | 11.0 | 0.00 | 0.00 | 0.00 | 49 | 1014.7 |
| 20260508160834 | 57 | 59 | 5.0 | 11.0 | 0.00 | 0.00 | 0.00 | 50 | 1016.1 |
| 20260508160502 | 56 | 99 | 5.0 | 11.0 | 0.00 | 0.00 | 0.00 | 49 | 1014.7 |
| 20260508160334 | 56 | 98 | 3.0 | 10.0 | 0.00 | 0.00 | 0.00 | 51 | 1016.1 |
| 20260508160007 | 56 | 115 | 4.0 | 10.0 | 0.00 | 0.00 | 0.00 | 49 | 1014.7 |
| 20260508155833 | 56 | 111 | 3.0 | 10.0 | 0.00 | 0.00 | 0.00 | 49 | 1016.1 |
| 20260508155503 | 56 | 149 | 3.0 | 10.0 | 0.00 | 0.00 | 0.00 | 47 | 1014.7 |
| 20260508155334 | 56 | 105 | 3.0 | 10.0 | 0.00 | 0.00 | 0.00 | 48 | 1016.3 |
| 20260508155002 | 56 | 92 | 2.0 | 13.0 | 0.00 | 0.00 | 0.00 | 47 | 1014.6 |
| 20260508154834 | 56 | 123 | 3.0 | 13.0 | 0.00 | 0.00 | 0.00 | 47 | 1016.0 |
| 20260508154507 | 56 | 121 | 1.0 | 13.0 | 0.00 | 0.00 | 0.00 | 48 | 1014.6 |
| 20260508154334 | 56 | 150 | 3.0 | 13.0 | 0.00 | 0.00 | 0.00 | 48 | 1016.1 |
| 20260508154007 | 56 | 82 | 6.0 | 11.0 | 0.00 | 0.00 | 0.00 | 48 | 1014.6 |
| 20260508153834 | 56 | 69 | 3.0 | 11.0 | 0.00 | 0.00 | 0.00 | 47 | 1016.1 |
| 20260508153504 | 56 | 165 | 1.0 | 11.0 | 0.00 | 0.00 | 0.00 | 48 | 1014.7 |
| 20260508153012 | 56 | 57 | 5.0 | 10.0 | 0.00 | 0.00 | 0.00 | 50 | 1014.7 |
| 20260508152834 | 56 | 121 | 4.0 | 10.0 | 0.00 | 0.00 | 0.00 | 51 | 1016.1 |
| 20260508152503 | 56 | 111 | 3.0 | 10.0 | 0.00 | 0.00 | 0.00 | 49 | 1014.6 |
| 20260508152334 | 56 | 95 | 5.0 | 10.0 | 0.00 | 0.00 | 0.00 | 51 | 1016.1 |
| 20260508152008 | 55 | 112 | 3.0 | 10.0 | 0.00 | 0.00 | 0.00 | 52 | 1014.6 |
| 20260508151831 | 56 | 115 | 5.0 | 10.0 | 0.00 | 0.00 | 0.00 | 50 | 1016.1 |
| 20260508151531 | 55 | 109 | 6.0 | 10.0 | 0.00 | 0.00 | 0.00 | 53 | 1014.6 |
| 20260508151330 | 55 | 97 | 5.0 | 10.0 | 0.00 | 0.00 | 0.00 | 53 | 1016.1 |
| 20260508151006 | 55 | 118 | 5.0 | 12.0 | 0.00 | 0.00 | 0.00 | 53 | 1014.6 |
| 20260508150830 | 55 | 114 | 5.0 | 12.0 | 0.00 | 0.00 | 0.00 | 57 | 1016.1 |
| 20260508150553 | 55 | 109 | 6.0 | 12.0 | 0.00 | 0.00 | 0.00 | 55 | 1016.1 |
| 20260508150504 | 54 | 106 | 4.0 | 12.0 | 0.00 | 0.00 | 0.00 | 53 | 1014.4 |
| 20260508150025 | 54 | 92 | 5.0 | 11.0 | 0.00 | 0.00 | 0.00 | 55 | 1014.5 |
| 20260508145828 | 55 | 108 | 4.0 | 10.0 | 0.00 | 0.00 | 0.00 | 56 | 1016.0 |
| 20260508145552 | 54 | 112 | 3.0 | 9.0 | 0.00 | 0.00 | 0.00 | 54 | 1016.1 |
| 20260508145509 | 54 | 95 | 4.0 | 10.0 | 0.00 | 0.00 | 0.00 | 54 | 1014.5 |
| 20260508145050 | 54 | 95 | 2.0 | 8.0 | 0.00 | 0.00 | 0.00 | 55 | 1016.3 |
| 20260508145004 | 53 | 106 | 5.0 | 9.0 | 0.00 | 0.00 | 0.00 | 54 | 1014.7 |
| 20260508144515 | 53 | 140 | 2.0 | 7.0 | 0.00 | 0.00 | 0.00 | 54 | 1014.7 |
| 20260508144326 | 53 | 148 | 2.0 | 7.0 | 0.00 | 0.00 | 0.00 | 54 | 1016.1 |
| 20260508144004 | 53 | 134 | 1.0 | 8.0 | 0.00 | 0.00 | 0.00 | 58 | 1014.6 |
| 20260508143824 | 53 | 113 | 3.0 | 8.0 | 0.00 | 0.00 | 0.00 | 59 | 1016.1 |
| 20260508143503 | 52 | 102 | 2.0 | 9.0 | 0.00 | 0.00 | 0.00 | 60 | 1014.6 |
| 20260508143323 | 53 | 98 | 4.0 | 9.0 | 0.00 | 0.00 | 0.00 | 61 | 1016.0 |
| 20260508143007 | 52 | 113 | 3.0 | 9.0 | 0.00 | 0.00 | 0.00 | 62 | 1014.6 |
| 20260508142824 | 53 | 96 | 4.0 | 9.0 | 0.00 | 0.00 | 0.00 | 61 | 1016.0 |
| 20260508142503 | 52 | 107 | 3.0 | 9.0 | 0.00 | 0.00 | 0.00 | 62 | 1014.5 |
| 20260508142324 | 53 | 101 | 5.0 | 9.0 | 0.00 | 0.00 | 0.00 | 63 | 1016.0 |
| 20260508142003 | 52 | 105 | 3.0 | 9.0 | 0.00 | 0.00 | 0.00 | 61 | 1014.6 |
| 20260508141823 | 52 | 96 | 4.0 | 9.0 | 0.00 | 0.00 | 0.00 | 62 | 1016.0 |
| 20260508141512 | 52 | 111 | 5.0 | 9.0 | 0.00 | 0.00 | 0.00 | 61 | 1014.6 |
| 20260508141324 | 52 | 94 | 4.0 | 10.0 | 0.00 | 0.00 | 0.00 | 62 | 1015.9 |
| 20260508141003 | 51 | 115 | 2.0 | 10.0 | 0.00 | 0.00 | 0.00 | 61 | 1014.6 |
| 20260508140823 | 52 | 107 | 5.0 | 10.0 | 0.00 | 0.00 | 0.00 | 63 | 1016.0 |
| 20260508140510 | 51 | 106 | 5.0 | 10.0 | 0.00 | 0.00 | 0.00 | 62 | 1014.6 |
| 20260508140324 | 51 | 111 | 5.0 | 9.0 | 0.00 | 0.00 | 0.00 | 64 | 1015.9 |
| 20260508140043 | 51 | 109 | 3.0 | 9.0 | 0.00 | 0.00 | 0.00 | 66 | 1015.9 |
| 20260508140019 | 51 | 112 | 5.0 | 9.0 | 0.00 | 0.00 | 0.00 | 64 | 1014.6 |
| 20260508135504 | 50 | 111 | 2.0 | 8.0 | 0.00 | 0.00 | 0.00 | 65 | 1014.7 |
| 20260508135317 | 51 | 119 | 4.0 | 8.0 | 0.00 | 0.00 | 0.00 | 66 | 1016.0 |
| 20260508135008 | 50 | 112 | 3.0 | 9.0 | 0.00 | 0.00 | 0.00 | 65 | 1014.6 |
| 20260508134811 | 50 | 94 | 4.0 | 9.0 | 0.00 | 0.00 | 0.00 | 66 | 1016.0 |
| 20260508134522 | 50 | 103 | 3.0 | 9.0 | 0.00 | 0.00 | 0.00 | 67 | 1014.7 |
| 20260508134305 | 50 | 104 | 2.0 | 9.0 | 0.00 | 0.00 | 0.00 | 68 | 1016.0 |
| 20260508134003 | 49 | 91 | 2.0 | 8.0 | 0.00 | 0.00 | 0.00 | 69 | 1014.7 |
| 20260508133800 | 49 | 100 | 2.0 | 8.0 | 0.00 | 0.00 | 0.00 | 70 | 1016.0 |
| 20260508133504 | 49 | 79 | 1.0 | 8.0 | 0.00 | 0.00 | 0.00 | 70 | 1014.7 |
| 20260508133253 | 49 | 98 | 2.0 | 8.0 | 0.00 | 0.00 | 0.00 | 70 | 1016.0 |
| 20260508133034 | 48 | 124 | 2.0 | 7.0 | 0.00 | 0.00 | 0.00 | 70 | 1014.7 |
| 20260508132510 | 48 | 96 | 1.0 | 7.0 | 0.00 | 0.00 | 0.00 | 72 | 1014.7 |
| 20260508132241 | 48 | 103 | 1.0 | 6.0 | 0.00 | 0.00 | 0.00 | 74 | 1015.9 |
| 20260508132002 | 47 | 111 | 1.0 | 6.0 | 0.00 | 0.00 | 0.00 | 72 | 1014.6 |
| 20260508131735 | 48 | 67 | 1.0 | 4.0 | 0.00 | 0.00 | 0.00 | 72 | 1015.9 |
| 20260508131507 | 47 | 91 | 0.0 | 6.0 | 0.00 | 0.00 | 0.00 | 73 | 1014.6 |
| 20260508131228 | 47 | 106 | 2.0 | 6.0 | 0.00 | 0.00 | 0.00 | 74 | 1015.9 |
| 20260508131004 | 47 | 114 | 1.0 | 6.0 | 0.00 | 0.00 | 0.00 | 74 | 1014.5 |
| 20260508130723 | 47 | 93 | 2.0 | 6.0 | 0.00 | 0.00 | 0.00 | 76 | 1015.8 |
| 20260508130503 | 46 | 101 | 3.0 | 6.0 | 0.00 | 0.00 | 0.00 | 75 | 1014.5 |
| 20260508130217 | 47 | 117 | 1.0 | 6.0 | 0.00 | 0.00 | 0.00 | 76 | 1015.8 |
| 20260508130015 | 46 | 108 | 0.0 | 6.0 | 0.00 | 0.00 | 0.00 | 75 | 1014.5 |
| 20260508125710 | 46 | 113 | 2.0 | 6.0 | 0.00 | 0.00 | 0.00 | 77 | 1015.8 |
| 20260508125504 | 45 | 113 | 1.0 | 6.0 | 0.00 | 0.00 | 0.00 | 77 | 1014.5 |
| 20260508125205 | 46 | 120 | 2.0 | 6.0 | 0.00 | 0.00 | 0.00 | 78 | 1015.8 |
| 20260508125011 | 45 | 101 | 2.0 | 6.0 | 0.00 | 0.00 | 0.00 | 79 | 1014.4 |
| 20260508124659 | 45 | 107 | 2.0 | 7.0 | 0.00 | 0.00 | 0.00 | 81 | 1015.8 |
| 20260508124521 | 44 | 109 | 2.0 | 7.0 | 0.00 | 0.00 | 0.00 | 79 | 1014.5 |
| 20260508124153 | 44 | 117 | 3.0 | 7.0 | 0.00 | 0.00 | 0.00 | 81 | 1015.9 |
| 20260508124006 | 43 | 105 | 2.0 | 7.0 | 0.00 | 0.00 | 0.00 | 81 | 1014.5 |
| 20260508123647 | 43 | 119 | 2.0 | 6.0 | 0.00 | 0.00 | 0.00 | 81 | 1015.8 |
| 20260508123508 | 43 | 134 | 2.0 | 6.0 | 0.00 | 0.00 | 0.00 | 81 | 1014.5 |
| 20260508123146 | 42 | 124 | 1.0 | 4.0 | 0.00 | 0.00 | 0.00 | 84 | 1015.9 |
| 20260508123009 | 42 | 119 | 1.0 | 4.0 | 0.00 | 0.00 | 0.00 | 84 | 1014.6 |
| 20260508122631 | 42 | 130 | 2.0 | 4.0 | 0.00 | 0.00 | 0.00 | 85 | 1015.9 |
| 20260508122504 | 41 | 131 | 0.0 | 6.0 | 0.00 | 0.00 | 0.00 | 85 | 1014.6 |
| 20260508122125 | 42 | 107 | 2.0 | 6.0 | 0.00 | 0.00 | 0.00 | 88 | 1016.0 |
| 20260508122003 | 41 | 105 | 2.0 | 6.0 | 0.00 | 0.00 | 0.00 | 87 | 1014.6 |
| 20260508121838 | 41 | 105 | 1.0 | 6.0 | 0.00 | 0.00 | 0.00 | 87 | 1016.1 |
| 20260508121508 | 41 | 106 | 2.0 | 4.0 | 0.00 | 0.00 | 0.00 | 86 | 1014.7 |
| 20260508121113 | 41 | 105 | 0.0 | 3.0 | 0.00 | 0.00 | 0.00 | 84 | 1016.0 |
| 20260508121005 | 41 | 105 | 0.0 | 3.0 | 0.00 | 0.00 | 0.00 | 83 | 1014.7 |
| 20260508120607 | 41 | 105 | 0.0 | 2.0 | 0.00 | 0.00 | 0.00 | 83 | 1016.1 |
| 20260508120503 | 41 | 105 | 0.0 | 1.0 | 0.00 | 0.00 | 0.00 | 82 | 1014.6 |
| 20260508120101 | 41 | 105 | 0.0 | 0.0 | 0.00 | 0.00 | 0.00 | 81 | 1016.1 |
| 20260508120005 | 41 | 105 | 0.0 | 0.0 | 0.00 | 0.00 | 0.00 | 81 | 1014.7 |
| 20260508115555 | 42 | 105 | 0.0 | 0.0 | 0.00 | 0.00 | 0.00 | 81 | 1016.4 |
| 20260508115506 | 41 | 105 | 0.0 | 0.0 | 0.00 | 0.00 | 0.00 | 81 | 1014.7 |
| 20260508115050 | 42 | 105 | 0.0 | 0.0 | 0.00 | 0.00 | 0.00 | 81 | 1016.4 |
| 20260508115007 | 41 | 105 | 0.0 | 0.0 | 0.00 | 0.00 | 0.00 | 81 | 1014.9 |
| 20260508114543 | 42 | 105 | 0.0 | 0.0 | 0.00 | 0.00 | 0.00 | 81 | 1016.4 |
| 20260508114519 | 41 | 105 | 0.0 | 0.0 | 0.00 | 0.00 | 0.00 | 81 | 1014.9 |
| 20260508114300 | 42 | 105 | 0.0 | 0.0 | 0.00 | 0.00 | 0.00 | 82 | 1016.4 |
| 20260508114003 | 42 | 105 | 0.0 | 0.0 | 0.00 | 0.00 | 0.00 | 81 | 1014.9 |
| 20260508113531 | 42 | 105 | 0.0 | 0.0 | 0.00 | 0.00 | 0.00 | 81 | 1016.5 |
| 20260508113505 | 42 | 105 | 0.0 | 0.0 | 0.00 | 0.00 | 0.00 | 81 | 1014.9 |
| 20260508113033 | 42 | 105 | 0.0 | 0.0 | 0.00 | 0.00 | 0.00 | 80 | 1014.9 |
| 20260508113025 | 42 | 105 | 0.0 | 0.0 | 0.00 | 0.00 | 0.00 | 81 | 1016.5 |
| 20260508112519 | 42 | 105 | 0.0 | 1.0 | 0.00 | 0.00 | 0.00 | 80 | 1016.5 |
| 20260508112509 | 42 | 105 | 0.0 | 1.0 | 0.00 | 0.00 | 0.00 | 80 | 1015.0 |
| 20260508112020 | 42 | 105 | 0.0 | 1.0 | 0.00 | 0.00 | 0.00 | 80 | 1016.6 |
| 20260508112002 | 42 | 105 | 0.0 | 1.0 | 0.00 | 0.00 | 0.00 | 80 | 1015.0 |
| 20260508111519 | 43 | 105 | 0.0 | 1.0 | 0.00 | 0.00 | 0.00 | 80 | 1016.5 |
| 20260508111019 | 43 | 105 | 0.0 | 1.0 | 0.00 | 0.00 | 0.00 | 79 | 1016.5 |
| 20260508111004 | 42 | 105 | 0.0 | 1.0 | 0.00 | 0.00 | 0.00 | 79 | 1015.0 |
| 20260508110520 | 43 | 105 | 0.0 | 3.0 | 0.00 | 0.00 | 0.00 | 79 | 1016.5 |
| 20260508110503 | 43 | 105 | 0.0 | 3.0 | 0.00 | 0.00 | 0.00 | 78 | 1015.0 |
| 20260508110020 | 44 | 105 | 1.0 | 3.0 | 0.00 | 0.00 | 0.00 | 78 | 1016.4 |
| 20260508110011 | 43 | 105 | 0.0 | 3.0 | 0.00 | 0.00 | 0.00 | 78 | 1015.0 |
| 20260508105745 | 44 | 105 | 1.0 | 4.0 | 0.00 | 0.00 | 0.00 | 78 | 1016.5 |
| 20260508105506 | 43 | 105 | 1.0 | 4.0 | 0.00 | 0.00 | 0.00 | 78 | 1015.0 |
| 20260508105019 | 44 | 105 | 1.0 | 4.0 | 0.00 | 0.00 | 0.00 | 79 | 1016.4 |
| 20260508105003 | 44 | 105 | 0.0 | 4.0 | 0.00 | 0.00 | 0.00 | 78 | 1015.1 |
| 20260508104749 | 44 | 111 | 1.0 | 4.0 | 0.00 | 0.00 | 0.00 | 80 | 1016.4 |
| 20260508104511 | 44 | 111 | 1.0 | 4.0 | 0.00 | 0.00 | 0.00 | 79 | 1015.0 |
| 20260508104019 | 44 | 110 | 0.0 | 1.0 | 0.00 | 0.00 | 0.00 | 77 | 1016.3 |
| 20260508104005 | 44 | 110 | 0.0 | 1.0 | 0.00 | 0.00 | 0.00 | 77 | 1015.0 |
| 20260508103517 | 45 | 111 | 1.0 | 3.0 | 0.00 | 0.00 | 0.00 | 77 | 1016.4 |
| 20260508103506 | 44 | 111 | 0.0 | 3.0 | 0.00 | 0.00 | 0.00 | 77 | 1015.0 |
| 20260508103024 | 45 | 111 | 1.0 | 3.0 | 0.00 | 0.00 | 0.00 | 78 | 1015.0 |
| 20260508103017 | 45 | 111 | 1.0 | 3.0 | 0.00 | 0.00 | 0.00 | 78 | 1016.4 |
| 20260508102517 | 45 | 112 | 0.0 | 3.0 | 0.00 | 0.00 | 0.00 | 76 | 1016.5 |
| 20260508102505 | 45 | 112 | 0.0 | 3.0 | 0.00 | 0.00 | 0.00 | 76 | 1015.1 |
| 20260508102017 | 46 | 112 | 0.0 | 0.0 | 0.00 | 0.00 | 0.00 | 76 | 1016.4 |
| 20260508102006 | 45 | 112 | 0.0 | 0.0 | 0.00 | 0.00 | 0.00 | 75 | 1015.0 |
| 20260508101733 | 46 | 112 | 0.0 | 0.0 | 0.00 | 0.00 | 0.00 | 74 | 1016.5 |
| 20260508101525 | 45 | 112 | 0.0 | 0.0 | 0.00 | 0.00 | 0.00 | 73 | 1015.2 |
| 20260508101241 | 46 | 112 | 0.0 | 3.0 | 0.00 | 0.00 | 0.00 | 73 | 1016.4 |
| 20260508101002 | 46 | 112 | 0.0 | 3.0 | 0.00 | 0.00 | 0.00 | 73 | 1015.1 |
| 20260508100743 | 47 | 112 | 1.0 | 3.0 | 0.00 | 0.00 | 0.00 | 75 | 1016.5 |
| 20260508100507 | 46 | 112 | 1.0 | 3.0 | 0.00 | 0.00 | 0.00 | 75 | 1015.1 |
| 20260508100024 | 46 | 112 | 0.0 | 3.0 | 0.00 | 0.00 | 0.00 | 74 | 1015.2 |
| 20260508100017 | 47 | 112 | 1.0 | 3.0 | 0.00 | 0.00 | 0.00 | 75 | 1016.5 |
| 20260508095511 | 47 | 112 | 2.0 | 4.0 | 0.00 | 0.00 | 0.00 | 78 | 1016.5 |
| 20260508095507 | 47 | 112 | 1.0 | 4.0 | 0.00 | 0.00 | 0.00 | 78 | 1015.2 |
| 20260508095006 | 47 | 111 | 1.0 | 6.0 | 0.00 | 0.00 | 0.00 | 77 | 1015.1 |
| 20260508094513 | 47 | 127 | 2.0 | 6.0 | 0.00 | 0.00 | 0.00 | 77 | 1015.1 |
| 20260508094500 | 47 | 121 | 1.0 | 6.0 | 0.00 | 0.00 | 0.00 | 77 | 1016.6 |
| 20260508094005 | 47 | 107 | 0.0 | 4.0 | 0.00 | 0.00 | 0.00 | 75 | 1015.2 |
| 20260508093953 | 47 | 107 | 1.0 | 4.0 | 0.00 | 0.00 | 0.00 | 76 | 1016.7 |
| 20260508093711 | 47 | 107 | 1.0 | 4.0 | 0.00 | 0.00 | 0.00 | 75 | 1016.7 |
| 20260508093502 | 47 | 107 | 1.0 | 4.0 | 0.00 | 0.00 | 0.00 | 75 | 1015.2 |
| 20260508093015 | 47 | 109 | 0.0 | 3.0 | 0.00 | 0.00 | 0.00 | 75 | 1015.2 |
| 20260508092941 | 47 | 109 | 1.0 | 3.0 | 0.00 | 0.00 | 0.00 | 76 | 1016.6 |
| 20260508092507 | 47 | 109 | 1.0 | 4.0 | 0.00 | 0.00 | 0.00 | 76 | 1015.3 |
| 20260508092434 | 47 | 109 | 2.0 | 4.0 | 0.00 | 0.00 | 0.00 | 77 | 1016.6 |
| 20260508092006 | 47 | 114 | 1.0 | 4.0 | 0.00 | 0.00 | 0.00 | 75 | 1015.3 |
| 20260508091929 | 47 | 114 | 2.0 | 4.0 | 0.00 | 0.00 | 0.00 | 75 | 1016.6 |
| 20260508091528 | 47 | 118 | 2.0 | 4.0 | 0.00 | 0.00 | 0.00 | 75 | 1015.4 |
| 20260508091424 | 47 | 119 | 1.0 | 4.0 | 0.00 | 0.00 | 0.00 | 75 | 1016.7 |
| 20260508091138 | 47 | 119 | 0.0 | 4.0 | 0.00 | 0.00 | 0.00 | 76 | 1016.7 |
| 20260508091009 | 47 | 121 | 2.0 | 4.0 | 0.00 | 0.00 | 0.00 | 75 | 1015.4 |
| 20260508090507 | 47 | 117 | 0.0 | 0.0 | 0.00 | 0.00 | 0.00 | 73 | 1015.4 |
| 20260508090411 | 47 | 117 | 0.0 | 0.0 | 0.00 | 0.00 | 0.00 | 74 | 1016.8 |
| 20260508090025 | 47 | 117 | 0.0 | 0.0 | 0.00 | 0.00 | 0.00 | 74 | 1015.4 |
| 20260508085905 | 48 | 117 | 0.0 | 0.0 | 0.00 | 0.00 | 0.00 | 74 | 1016.7 |
| 20260508085506 | 47 | 117 | 0.0 | 0.0 | 0.00 | 0.00 | 0.00 | 73 | 1015.5 |
| 20260508085404 | 48 | 117 | 0.0 | 0.0 | 0.00 | 0.00 | 0.00 | 74 | 1016.8 |
| 20260508085012 | 47 | 117 | 0.0 | 0.0 | 0.00 | 0.00 | 0.00 | 72 | 1015.5 |
| 20260508084903 | 48 | 117 | 0.0 | 0.0 | 0.00 | 0.00 | 0.00 | 73 | 1016.8 |
| 20260508084527 | 48 | 117 | 0.0 | 0.0 | 0.00 | 0.00 | 0.00 | 72 | 1015.5 |
| 20260508084403 | 48 | 117 | 0.0 | 0.0 | 0.00 | 0.00 | 0.00 | 72 | 1016.9 |
| 20260508084005 | 48 | 117 | 0.0 | 0.0 | 0.00 | 0.00 | 0.00 | 71 | 1015.5 |
| 20260508083903 | 48 | 117 | 0.0 | 0.0 | 0.00 | 0.00 | 0.00 | 72 | 1016.9 |
| 20260508083508 | 48 | 117 | 0.0 | 0.0 | 0.00 | 0.00 | 0.00 | 70 | 1015.5 |
| 20260508083403 | 49 | 117 | 0.0 | 0.0 | 0.00 | 0.00 | 0.00 | 70 | 1016.8 |
| 20260508083026 | 48 | 117 | 0.0 | 0.0 | 0.00 | 0.00 | 0.00 | 69 | 1015.5 |
| 20260508082903 | 49 | 117 | 0.0 | 0.0 | 0.00 | 0.00 | 0.00 | 70 | 1016.8 |
| 20260508082626 | 49 | 117 | 0.0 | 0.0 | 0.00 | 0.00 | 0.00 | 70 | 1016.8 |
| 20260508082507 | 49 | 117 | 0.0 | 0.0 | 0.00 | 0.00 | 0.00 | 69 | 1015.5 |
| 20260508082007 | 49 | 117 | 0.0 | 0.0 | 0.00 | 0.00 | 0.00 | 69 | 1015.5 |
| 20260508081859 | 50 | 117 | 0.0 | 0.0 | 0.00 | 0.00 | 0.00 | 68 | 1016.9 |
| 20260508081622 | 50 | 117 | 0.0 | 0.0 | 0.00 | 0.00 | 0.00 | 68 | 1016.9 |
| 20260508081519 | 49 | 117 | 0.0 | 0.0 | 0.00 | 0.00 | 0.00 | 67 | 1015.5 |
| 20260508081123 | 50 | 117 | 0.0 | 0.0 | 0.00 | 0.00 | 0.00 | 68 | 1016.8 |
| 20260508081005 | 49 | 117 | 0.0 | 0.0 | 0.00 | 0.00 | 0.00 | 68 | 1015.6 |
| 20260508080509 | 50 | 117 | 0.0 | 0.0 | 0.00 | 0.00 | 0.00 | 67 | 1015.6 |
| 20260508080355 | 50 | 117 | 0.0 | 0.0 | 0.00 | 0.00 | 0.00 | 67 | 1016.8 |
| 20260508080022 | 50 | 117 | 0.0 | 0.0 | 0.00 | 0.00 | 0.00 | 67 | 1015.6 |
| 20260508075854 | 51 | 117 | 0.0 | 0.0 | 0.00 | 0.00 | 0.00 | 68 | 1016.8 |
| 20260508075508 | 50 | 117 | 0.0 | 6.0 | 0.00 | 0.00 | 0.00 | 67 | 1015.7 |
| 20260508075353 | 51 | 117 | 1.0 | 6.0 | 0.00 | 0.00 | 0.00 | 66 | 1016.8 |
| 20260508075010 | 51 | 117 | 0.0 | 7.0 | 0.00 | 0.00 | 0.00 | 67 | 1015.7 |
| 20260508074853 | 51 | 117 | 3.0 | 7.0 | 0.00 | 0.00 | 0.00 | 69 | 1016.8 |
| 20260508074519 | 51 | 110 | 2.0 | 7.0 | 0.00 | 0.00 | 0.00 | 68 | 1015.6 |
| 20260508074353 | 51 | 112 | 3.0 | 7.0 | 0.00 | 0.00 | 0.00 | 69 | 1016.8 |
| 20260508074006 | 51 | 117 | 4.0 | 6.0 | 0.00 | 0.00 | 0.00 | 68 | 1015.6 |
| 20260508073853 | 51 | 111 | 2.0 | 6.0 | 0.00 | 0.00 | 0.00 | 68 | 1016.8 |
| 20260508073510 | 51 | 115 | 3.0 | 6.0 | 0.00 | 0.00 | 0.00 | 69 | 1015.7 |
| 20260508073354 | 51 | 103 | 1.0 | 6.0 | 0.00 | 0.00 | 0.00 | 69 | 1016.9 |
| 20260508073033 | 51 | 149 | 0.0 | 3.0 | 0.00 | 0.00 | 0.00 | 67 | 1015.7 |
| 20260508072853 | 51 | 153 | 1.0 | 3.0 | 0.00 | 0.00 | 0.00 | 68 | 1016.9 |
| 20260508072616 | 51 | 130 | 0.0 | 3.0 | 0.00 | 0.00 | 0.00 | 68 | 1016.9 |
| 20260508072507 | 51 | 130 | 0.0 | 3.0 | 0.00 | 0.00 | 0.00 | 66 | 1015.8 |
| 20260508072009 | 51 | 110 | 0.0 | 4.0 | 0.00 | 0.00 | 0.00 | 66 | 1015.8 |
| 20260508071853 | 51 | 110 | 0.0 | 4.0 | 0.00 | 0.00 | 0.00 | 68 | 1017.1 |
| 20260508071532 | 51 | 112 | 0.0 | 4.0 | 0.00 | 0.00 | 0.00 | 68 | 1015.7 |
| 20260508071353 | 51 | 109 | 0.0 | 4.0 | 0.00 | 0.00 | 0.00 | 67 | 1017.1 |
| 20260508071005 | 51 | 119 | 0.0 | 2.0 | 0.00 | 0.00 | 0.00 | 64 | 1015.8 |
| 20260508070853 | 51 | 119 | 0.0 | 2.0 | 0.00 | 0.00 | 0.00 | 64 | 1016.9 |
| 20260508070624 | 52 | 118 | 0.0 | 2.0 | 0.00 | 0.00 | 0.00 | 62 | 1017.1 |
| 20260508070507 | 51 | 119 | 0.0 | 2.0 | 0.00 | 0.00 | 0.00 | 62 | 1015.7 |
| 20260508070023 | 52 | 118 | 0.0 | 1.0 | 0.00 | 0.00 | 0.00 | 61 | 1015.5 |
| 20260508065851 | 53 | 118 | 0.0 | 1.0 | 0.00 | 0.00 | 0.00 | 61 | 1016.8 |
| 20260508065508 | 52 | 118 | 0.0 | 2.0 | 0.00 | 0.00 | 0.00 | 61 | 1015.5 |
| 20260508065346 | 53 | 118 | 0.0 | 2.0 | 0.00 | 0.00 | 0.00 | 61 | 1016.9 |
| 20260508065006 | 53 | 118 | 0.0 | 2.0 | 0.00 | 0.00 | 0.00 | 60 | 1015.5 |
| 20260508064839 | 53 | 118 | 1.0 | 3.0 | 0.00 | 0.00 | 0.00 | 60 | 1017.1 |
| 20260508064531 | 53 | 110 | 0.0 | 4.0 | 0.00 | 0.00 | 0.00 | 60 | 1015.6 |
| 20260508064333 | 54 | 110 | 1.0 | 6.0 | 0.00 | 0.00 | 0.00 | 59 | 1017.1 |
| 20260508064008 | 54 | 110 | 0.0 | 6.0 | 0.00 | 0.00 | 0.00 | 58 | 1015.6 |
| 20260508063827 | 55 | 109 | 2.0 | 6.0 | 0.00 | 0.00 | 0.00 | 59 | 1017.1 |
| 20260508063516 | 55 | 111 | 2.0 | 6.0 | 0.00 | 0.00 | 0.00 | 58 | 1015.6 |
| 20260508063321 | 55 | 119 | 2.0 | 6.0 | 0.00 | 0.00 | 0.00 | 58 | 1017.1 |
| 20260508063031 | 55 | 112 | 2.0 | 6.0 | 0.00 | 0.00 | 0.00 | 58 | 1015.5 |
| 20260508062815 | 55 | 121 | 2.0 | 6.0 | 0.00 | 0.00 | 0.00 | 59 | 1017.1 |
| 20260508062529 | 55 | 117 | 2.0 | 6.0 | 0.00 | 0.00 | 0.00 | 58 | 1016.9 |
| 20260508062516 | 55 | 105 | 2.0 | 6.0 | 0.00 | 0.00 | 0.00 | 57 | 1015.5 |
| 20260508062013 | 55 | 109 | 1.0 | 7.0 | 0.00 | 0.00 | 0.00 | 56 | 1015.5 |
| 20260508061803 | 56 | 158 | 2.0 | 7.0 | 0.00 | 0.00 | 0.00 | 57 | 1016.9 |
| 20260508061518 | 55 | 111 | 1.0 | 7.0 | 0.00 | 0.00 | 0.00 | 55 | 1015.5 |
| 20260508061258 | 56 | 128 | 1.0 | 7.0 | 0.00 | 0.00 | 0.00 | 57 | 1017.1 |
| 20260508061017 | 56 | 181 | 1.0 | 4.0 | 0.00 | 0.00 | 0.00 | 55 | 1017.1 |
| 20260508061009 | 55 | 170 | 0.0 | 4.0 | 0.00 | 0.00 | 0.00 | 55 | 1015.5 |
| 20260508060502 | 55 | 221 | 1.0 | 4.0 | 0.00 | 0.00 | 0.00 | 55 | 1015.5 |
| 20260508060245 | 56 | 188 | 1.0 | 3.0 | 0.00 | 0.00 | 0.00 | 56 | 1017.1 |
| 20260508060005 | 55 | 180 | 1.0 | 6.0 | 0.00 | 0.00 | 0.00 | 56 | 1015.6 |
| 20260508055739 | 56 | 109 | 1.0 | 6.0 | 0.00 | 0.00 | 0.00 | 56 | 1017.1 |
| 20260508055502 | 55 | 111 | 0.0 | 6.0 | 0.00 | 0.00 | 0.00 | 56 | 1015.7 |
| 20260508055234 | 56 | 111 | 1.0 | 6.0 | 0.00 | 0.00 | 0.00 | 56 | 1017.2 |
| 20260508055002 | 55 | 127 | 0.0 | 3.0 | 0.00 | 0.00 | 0.00 | 55 | 1015.6 |
| 20260508054727 | 56 | 211 | 1.0 | 4.0 | 0.00 | 0.00 | 0.00 | 55 | 1017.1 |
| 20260508054503 | 56 | 211 | 0.0 | 7.0 | 0.00 | 0.00 | 0.00 | 55 | 1015.6 |
| 20260508054220 | 56 | 119 | 1.0 | 7.0 | 0.00 | 0.00 | 0.00 | 57 | 1017.1 |
| 20260508054001 | 56 | 126 | 1.0 | 7.0 | 0.00 | 0.00 | 0.00 | 55 | 1015.7 |
| 20260508053715 | 56 | 91 | 1.0 | 7.0 | 0.00 | 0.00 | 0.00 | 55 | 1017.2 |
| 20260508053505 | 56 | 95 | 0.0 | 6.0 | 0.00 | 0.00 | 0.00 | 55 | 1015.9 |
| 20260508053209 | 56 | 106 | 1.0 | 6.0 | 0.00 | 0.00 | 0.00 | 56 | 1017.2 |
| 20260508053005 | 56 | 106 | 2.0 | 6.0 | 0.00 | 0.00 | 0.00 | 55 | 1015.8 |
| 20260508052928 | 56 | 140 | 1.0 | 4.0 | 0.00 | 0.00 | 0.00 | 56 | 1017.2 |
| 20260508052502 | 56 | 138 | 0.0 | 4.0 | 0.00 | 0.00 | 0.00 | 55 | 1015.8 |
| 20260508052157 | 56 | 103 | 1.0 | 4.0 | 0.00 | 0.00 | 0.00 | 55 | 1017.2 |
| 20260508052007 | 56 | 218 | 1.0 | 4.0 | 0.00 | 0.00 | 0.00 | 56 | 1015.9 |
| 20260508051652 | 56 | 164 | 1.0 | 4.0 | 0.00 | 0.00 | 0.00 | 55 | 1017.2 |
| 20260508051507 | 56 | 105 | 1.0 | 4.0 | 0.00 | 0.00 | 0.00 | 55 | 1015.9 |
| 20260508051407 | 57 | 80 | 1.0 | 6.0 | 0.00 | 0.00 | 0.00 | 56 | 1017.3 |
| 20260508051003 | 56 | 102 | 1.0 | 6.0 | 0.00 | 0.00 | 0.00 | 55 | 1015.9 |
| 20260508050639 | 57 | 178 | 1.0 | 6.0 | 0.00 | 0.00 | 0.00 | 55 | 1017.3 |
| 20260508050503 | 56 | 111 | 0.0 | 7.0 | 0.00 | 0.00 | 0.00 | 55 | 1015.8 |
| 20260508050133 | 57 | 119 | 2.0 | 7.0 | 0.00 | 0.00 | 0.00 | 56 | 1017.1 |
| 20260508050005 | 56 | 231 | 1.0 | 7.0 | 0.00 | 0.00 | 0.00 | 56 | 1015.9 |
| 20260508045628 | 57 | 113 | 2.0 | 8.0 | 0.00 | 0.00 | 0.00 | 56 | 1017.2 |
| 20260508045503 | 56 | 105 | 1.0 | 8.0 | 0.00 | 0.00 | 0.00 | 54 | 1015.8 |
| 20260508045121 | 57 | 136 | 3.0 | 8.0 | 0.00 | 0.00 | 0.00 | 57 | 1017.1 |
| 20260508045004 | 56 | 134 | 1.0 | 8.0 | 0.00 | 0.00 | 0.00 | 54 | 1015.7 |
| 20260508044834 | 57 | 111 | 2.0 | 8.0 | 0.00 | 0.00 | 0.00 | 56 | 1017.1 |
| 20260508044504 | 57 | 111 | 3.0 | 8.0 | 0.00 | 0.00 | 0.00 | 55 | 1015.7 |
| 20260508044109 | 57 | 153 | 2.0 | 7.0 | 0.00 | 0.00 | 0.00 | 56 | 1017.2 |
| 20260508044002 | 57 | 106 | 2.0 | 7.0 | 0.00 | 0.00 | 0.00 | 54 | 1015.7 |
| 20260508043603 | 57 | 113 | 1.0 | 3.0 | 0.00 | 0.00 | 0.00 | 56 | 1017.2 |
| 20260508043502 | 57 | 129 | 1.0 | 3.0 | 0.00 | 0.00 | 0.00 | 54 | 1015.7 |
| 20260508043321 | 58 | 146 | 1.0 | 3.0 | 0.00 | 0.00 | 0.00 | 55 | 1017.2 |
| 20260508043003 | 57 | 146 | 0.0 | 3.0 | 0.00 | 0.00 | 0.00 | 55 | 1015.7 |
| 20260508042550 | 58 | 140 | 1.0 | 6.0 | 0.00 | 0.00 | 0.00 | 54 | 1017.3 |
| 20260508042503 | 57 | 140 | 1.0 | 6.0 | 0.00 | 0.00 | 0.00 | 54 | 1015.8 |
| 20260508042307 | 58 | 113 | 2.0 | 6.0 | 0.00 | 0.00 | 0.00 | 54 | 1017.3 |
| 20260508042004 | 57 | 112 | 2.0 | 6.0 | 0.00 | 0.00 | 0.00 | 54 | 1015.8 |
| 20260508041539 | 58 | 179 | 1.0 | 4.0 | 0.00 | 0.00 | 0.00 | 53 | 1017.3 |
| 20260508041510 | 57 | 178 | 1.0 | 4.0 | 0.00 | 0.00 | 0.00 | 53 | 1015.8 |
| 20260508041029 | 58 | 84 | 1.0 | 8.0 | 0.00 | 0.00 | 0.00 | 54 | 1017.2 |
| 20260508041003 | 57 | 68 | 1.0 | 8.0 | 0.00 | 0.00 | 0.00 | 53 | 1015.7 |
| 20260508040523 | 58 | 124 | 2.0 | 8.0 | 0.00 | 0.00 | 0.00 | 54 | 1017.2 |
| 20260508040502 | 57 | 124 | 0.0 | 8.0 | 0.00 | 0.00 | 0.00 | 53 | 1015.8 |
| 20260508040240 | 58 | 105 | 1.0 | 7.0 | 0.00 | 0.00 | 0.00 | 53 | 1017.2 |
| 20260508040010 | 58 | 108 | 1.0 | 6.0 | 0.00 | 0.00 | 0.00 | 53 | 1015.7 |
| 20260508035511 | 58 | 132 | 1.0 | 6.0 | 0.00 | 0.00 | 0.00 | 54 | 1017.1 |
| 20260508035503 | 58 | 132 | 1.0 | 6.0 | 0.00 | 0.00 | 0.00 | 54 | 1015.7 |
| 20260508035006 | 58 | 123 | 1.0 | 4.0 | 0.00 | 0.00 | 0.00 | 51 | 1017.2 |
| 20260508035004 | 58 | 123 | 0.0 | 4.0 | 0.00 | 0.00 | 0.00 | 51 | 1015.8 |
| 20260508034521 | 58 | 124 | 1.0 | 4.0 | 0.00 | 0.00 | 0.00 | 54 | 1015.7 |
| 20260508034500 | 58 | 124 | 1.0 | 4.0 | 0.00 | 0.00 | 0.00 | 54 | 1017.2 |
| 20260508034006 | 58 | 156 | 0.0 | 3.0 | 0.00 | 0.00 | 0.00 | 50 | 1015.7 |
| 20260508033953 | 59 | 156 | 1.0 | 3.0 | 0.00 | 0.00 | 0.00 | 50 | 1017.2 |
| 20260508033709 | 59 | 154 | 1.0 | 3.0 | 0.00 | 0.00 | 0.00 | 49 | 1017.2 |
| 20260508033503 | 58 | 154 | 0.0 | 3.0 | 0.00 | 0.00 | 0.00 | 49 | 1015.7 |
| 20260508033019 | 59 | 90 | 0.0 | 3.0 | 0.00 | 0.00 | 0.00 | 48 | 1015.6 |
| 20260508032941 | 59 | 90 | 0.0 | 3.0 | 0.00 | 0.00 | 0.00 | 48 | 1017.3 |
| 20260508032504 | 59 | 120 | 0.0 | 4.0 | 0.00 | 0.00 | 0.00 | 47 | 1015.6 |
| 20260508032436 | 60 | 120 | 0.0 | 4.0 | 0.00 | 0.00 | 0.00 | 47 | 1017.2 |
| 20260508032156 | 60 | 120 | 0.0 | 4.0 | 0.00 | 0.00 | 0.00 | 46 | 1017.3 |